DECAYED

DMSP 5D-2 F14 DEB, 62947 (Decayed)

Orbit data source: Space-Track

DMSP 5D-2 F14 DEB, 62947 was space debris in SSO originally from a launch on Fri, 04 Apr 1997 UTC launched from the Air Force Western Test Range (AFWTR). Debris objects in space refer to the collection of defunct objects orbiting the Earth. Examples of debris include non-operational satellites, rocket bodies, and fragments generated from explosions, collisions, or faulty payload assembly.

Not visible in the next 10 days
Identifier
62947, 1997-012T
Orbit
Decayed
Country
Flag of USUS
Related business
Manufacturer
LMT/EW
Mission
Decayed spacecraft
Bus & Motor
Unknown
Mass
Unknown
Launch date (UTC)
1997-04-04 (29 years ago)
Launch vehicle
Unknown
Launch site
Air Force Western Test Range (AFWTR)
Object type
Payload
Rocket body
Debris
Shape & HBR
Unknown shape, 0.1 m
Radar Cross Section
Medium (>0.1 m² and <1 m²)

Expand to show TLE details & history
Last TLE update: 6 months ago

TLE from 6 months ago
0 DMSP 5D-2 F14 DEB
1 62947U 97012T   25347.15309368  .07957836  00000-0  18970+0 0  9992
2 62947  99.4487  59.3958 0022547 299.1644  60.7337 15.36061668482333
Epoch: 2025-12-13T03:40Z
TLE epoch observation values (Epoch: 2025-12-13T03:40:27.293Z)
Latitude
-0.00006°
Longitude
-77.80237°
Altitude
453.304 km
Speed
7.645 km/s
True Right ascension
03h 57m 34s
True Declination
0° 00' 00"
Sunlit
Object was in full shadow at epoch
Visualization orbit readout
Latitude
Unknown
Longitude
Unknown
Altitude
Unknown
Speed
Unknown
Apparent Right ascension
Unknown
Apparent Declination
Unknown
Sunlit
N/A
Visualization observer readout
Local Sidereal Time
07:15:28
Azimuth
Unknown
Elevation
Unknown
Doppler factor
Unknown
Orbital elements
Apogee altitude
470.219 km
Perigee altitude
439.407 km
Semi-major axis
6,832.95 km
Eccentricity
0.00225
Inclination
99.4487°
RAAN
59.3958°
Arg. of periapsis
299.1644°
True anomaly
60.9594°
Mean anomaly
60.7337°
Eccentric anomaly
60.84652°
Mean motion
3.84265 °/min
Orbital period
93.69 mins
BSTAR
0.1897
Loading maneuver chart data...
Computing Atmospheric mass density...

Documentation

Showing up to 5 results
|